QPF
0.04 0.03 0.03 0.03 0.03 0.04 0.05 0.05 0.03 0.00 0.00 0.00 0.00 0.00 0.00 0.00 0.00 0.00 0.00 0.00 0.00 0.00 0.00 0.00 0.00 0.00 0.00 0.00 0.00 0.00 0.00 0.00 0.00 0.00 0.00 0.00 0.00 0.00 0.00 0.00 0.00 0.00 0.00 0.00
0.02 0.02 0.03 0.02 0.01 0.01 0.01 0.01 0.01 0.00 0.00 0.00 0.00 0.00 0.00 0.00 0.00 0.00 0.00 0.00 0.00 0.00 0.00 0.00 0.00 0.00 0.00 0.00 0.00 0.00 0.00 0.00 0.00 0.00 0.00 0.00 0.00 0.00 0.00 0.00 0.00 0.00 0.00 0.00
0.04 0.02 0.05 0.04 0.01 0.00 0.00 0.00 0.00 0.00 0.00 0.00 0.00 0.00 0.00 0.00 0.00 0.00 0.00 0.00 0.00 0.00 0.00 0.00 0.00 0.00 0.00 0.00 0.00 0.00 0.00 0.00 0.00 0.00 0.00 0.00 0.00 0.00 0.00 0.00 0.00 0.00 0.00 0.00
0.07 0.07 0.10 0.03 0.00 0.00 0.00 0.00 0.00 0.00 0.00 0.00 0.00 0.00 0.00 0.00 0.00 0.00 0.00 0.00 0.00 0.00 0.00 0.00 0.00 0.00 0.00 0.00 0.00 0.00 0.00 0.00 0.00 0.00 0.00 0.00 0.00 0.00 0.00 0.00 0.00 0.00 0.00 0.00
0.12 0.10 0.07 0.01 0.00 0.00 0.00 0.00 0.00 0.00 0.00 0.00 0.00 0.00 0.00 0.00 0.00 0.00 0.00 0.00 0.00 0.00 0.00 0.00 0.00 0.00 0.00 0.00 0.00 0.00 0.00 0.00 0.00 0.00 0.00 0.00 0.00 0.00 0.00 0.00 0.00 0.00 0.00 0.00
0.13 0.10 0.04 0.01 0.00 0.00 0.01 0.01 0.01 0.01 0.00 0.00 0.00 0.00 0.00 0.00 0.00 0.00 0.00 0.00 0.00 0.00 0.00 0.00 0.00 0.00 0.00 0.00 0.00 0.00 0.00 0.00 0.00 0.00 0.00 0.00 0.00 0.00 0.00 0.00 0.00 0.00 0.00 0.00
0.10 0.07 0.02 0.01 0.00 0.01 0.02 0.02 0.01 0.01 0.01 0.00 0.00 0.00 0.00 0.00 0.00 0.00 0.00 0.00 0.00 0.00 0.00 0.00 0.00 0.00 0.00 0.00 0.00 0.00 0.00 0.00 0.00 0.00 0.00 0.00 0.00 0.00 0.00 0.00 0.00 0.00 0.00 0.00
0.09 0.07 0.03 0.01 0.02 0.03 0.03 0.01 0.01 0.01 0.01 0.00 0.00 0.00 0.00 0.00 0.00 0.00 0.00 0.00 0.00 0.00 0.00 0.00 0.00 0.00 0.00 0.00 0.00 0.00 0.00 0.00 0.00 0.00 0.00 0.00 0.00 0.00 0.00 0.00 0.00 0.00 0.00 0.00
0.06 0.03 0.02 0.02 0.02 0.02 0.01 0.01 0.01 0.01 0.01 0.01 0.00 0.00 0.00 0.00 0.00 0.00 0.00 0.00 0.00 0.00 0.00 0.00 0.00 0.00 0.00 0.00 0.00 0.00 0.00 0.00 0.00 0.00 0.00 0.00 0.00 0.00 0.00 0.00 0.00 0.00 0.00 0.00
0.03 0.01 0.01 0.01 0.01 0.01 0.01 0.01 0.01 0.01 0.02 0.01 0.00 0.00 0.00 0.00 0.00 0.00 0.00 0.00 0.00 0.00 0.00 0.00 0.00 0.00 0.00 0.00 0.00 0.00 0.00 0.00 0.00 0.00 0.00 0.00 0.00 0.00 0.00 0.00 0.00 0.00 0.00 0.00
0.02 0.01 0.01 0.01 0.01 0.01 0.01 0.01 0.01 0.01 0.01 0.01 0.01 0.00 0.00 0.00 0.00 0.00 0.00 0.00 0.00 0.00 0.00 0.00 0.00 0.00 0.00 0.00 0.00 0.00 0.00 0.00 0.00 0.00 0.00 0.00 0.00 0.00 0.00 0.00 0.00 0.00 0.00 0.00
0.02 0.01 0.01 0.01 0.01 0.01 0.01 0.00 0.01 0.01 0.01 0.01 0.01 0.00 0.00 0.00 0.00 0.00 0.00 0.00 0.00 0.00 0.00 0.00 0.00 0.00 0.00 0.00 0.00 0.00 0.00 0.00 0.00 0.00 0.00 0.00 0.00 0.00 0.00 0.00 0.00 0.00 0.00 0.00
0.01 0.01 0.01 0.01 0.01 0.00 0.00 0.00 0.01 0.01 0.01 0.01 0.01 0.01 0.00 0.00 0.00 0.00 0.00 0.00 0.00 0.00 0.00 0.00 0.00 0.00 0.00 0.00 0.00 0.00 0.00 0.00 0.00 0.00 0.00 0.00 0.00 0.00 0.00 0.00 0.00 0.00 0.00 0.00
0.01 0.01 0.00 0.00 0.01 0.01 0.01 0.01 0.01 0.01 0.01 0.01 0.01 0.01 0.01 0.01 0.00 0.00 0.00 0.00 0.00 0.00 0.00 0.00 0.00 0.00 0.00 0.00 0.00 0.00 0.00 0.00 0.00 0.00 0.00 0.00 0.00 0.00 0.00 0.00 0.00 0.00 0.00 0.00
0.01 0.01 0.01 0.01 0.01 0.01 0.01 0.01 0.01 0.01 0.01 0.01 0.01 0.01 0.01 0.01 0.01 0.00 0.00 0.00 0.00 0.00 0.00 0.00 0.00 0.00 0.00 0.00 0.00 0.00 0.00 0.00 0.00 0.00 0.00 0.00 0.00 0.00 0.00 0.00 0.00 0.00 0.00 0.00
0.01 0.01 0.01 0.01 0.01 0.01 0.01 0.01 0.01 0.01 0.01 0.01 0.00 0.01 0.01 0.01 0.01 0.01 0.00 0.00 0.00 0.00 0.00 0.00 0.00 0.00 0.00 0.00 0.00 0.00 0.00 0.00 0.00 0.00 0.00 0.00 0.00 0.00 0.00 0.00 0.00 0.00 0.00 0.00
0.02 0.01 0.01 0.02 0.02 0.02 0.01 0.01 0.01 0.01 0.01 0.00 0.00 0.01 0.01 0.01 0.01 0.01 0.01 0.00 0.00 0.00 0.00 0.00 0.00 0.00 0.00 0.00 0.00 0.00 0.00 0.00 0.00 0.00 0.00 0.00 0.00 0.00 0.00 0.00 0.00 0.00 0.00 0.00
0.02 0.02 0.02 0.02 0.02 0.02 0.01 0.01 0.01 0.01 0.01 0.00 0.00 0.01 0.01 0.01 0.01 0.01 0.01 0.00 0.00 0.00 0.00 0.00 0.00 0.00 0.00 0.00 0.00 0.00 0.00 0.00 0.00 0.00 0.00 0.00 0.00 0.00 0.00 0.00 0.00 0.00 0.00 0.00
0.02 0.02 0.01 0.01 0.01 0.02 0.02 0.01 0.01 0.01 0.00 0.00 0.00 0.00 0.01 0.01 0.01 0.00 0.00 0.00 0.00 0.00 0.00 0.00 0.00 0.00 0.00 0.00 0.00 0.00 0.00 0.00 0.00 0.00 0.00 0.00 0.00 0.00 0.00 0.00 0.00 0.00 0.00 0.00
0.03 0.03 0.02 0.01 0.01 0.01 0.02 0.02 0.01 0.01 0.00 0.00 0.00 0.00 0.01 0.01 0.01 0.00 0.00 0.00 0.00 0.00 0.00 0.00 0.00 0.00 0.00 0.00 0.00 0.00 0.00 0.00 0.00 0.00 0.00 0.00 0.00 0.00 0.00 0.00 0.00 0.00 0.00 0.00
0.04 0.04 0.02 0.01 0.01 0.02 0.03 0.02 0.01 0.01 0.00 0.00 0.00 0.01 0.01 0.01 0.01 0.00 0.00 0.00 0.00 0.00 0.00 0.00 0.00 0.00 0.00 0.00 0.00 0.00 0.00 0.00 0.00 0.00 0.00 0.00 0.00 0.00 0.00 0.00 0.00 0.00 0.00 0.00
0.04 0.04 0.03 0.02 0.01 0.01 0.02 0.02 0.01 0.01 0.01 0.01 0.01 0.01 0.01 0.00 0.00 0.00 0.00 0.00 0.00 0.00 0.00 0.00 0.00 0.00 0.00 0.00 0.00 0.00 0.00 0.00 0.00 0.00 0.00 0.00 0.00 0.00 0.00 0.00 0.00 0.00 0.00 0.00
0.05 0.04 0.03 0.02 0.01 0.01 0.01 0.01 0.01 0.01 0.01 0.01 0.01 0.01 0.01 0.01 0.00 0.00 0.00 0.00 0.00 0.00 0.00 0.00 0.00 0.00 0.00 0.00 0.00 0.00 0.00 0.00 0.00 0.00 0.00 0.00 0.00 0.00 0.00 0.00 0.00 0.00 0.00 0.00
0.04 0.03 0.02 0.02 0.01 0.01 0.01 0.02 0.02 0.02 0.01 0.01 0.01 0.01 0.01 0.01 0.01 0.01 0.01 0.00 0.00 0.00 0.00 0.00 0.00 0.00 0.00 0.00 0.00 0.00 0.01 0.01 0.01 0.01 0.01 0.01 0.01 0.00 0.00 0.00 0.00 0.00 0.00 0.00
0.04 0.03 0.02 0.02 0.01 0.01 0.02 0.02 0.02 0.02 0.02 0.02 0.02 0.02 0.02 0.01 0.01 0.01 0.01 0.00 0.00 0.00 0.00 0.00 0.00 0.00 0.01 0.01 0.01 0.01 0.01 0.01 0.01 0.01 0.01 0.01 0.01 0.00 0.00 0.00 0.00 0.00 0.00 0.00
0.04 0.03 0.02 0.02 0.02 0.02 0.02 0.02 0.02 0.03 0.03 0.03 0.03 0.03 0.02 0.01 0.01 0.01 0.01 0.01 0.00 0.00 0.01 0.01 0.01 0.01 0.01 0.01 0.01 0.01 0.01 0.01 0.01 0.01 0.01 0.01 0.01 0.01 0.00 0.00 0.00 0.00 0.00 0.00
0.04 0.04 0.03 0.03 0.04 0.03 0.03 0.03 0.03 0.04 0.04 0.03 0.02 0.02 0.02 0.02 0.01 0.01 0.01 0.01 0.01 0.01 0.01 0.01 0.01 0.01 0.01 0.01 0.01 0.01 0.01 0.01 0.01 0.01 0.01 0.01 0.00 0.00 0.00 0.00 0.00 0.00 0.00 0.00
MSLP
998.68 997.54 996.58 995.86 995.38 995.12 995.03 995.06 995.15 995.24 995.30 995.32 995.32 995.33 995.38 995.51 995.75 996.10 996.57 997.13 997.74 998.37 998.97 999.53 1000.03 1000.49 1000.91 1001.32 1001.76 1002.24 1002.78 1003.39 1004.06 1004.78 1005.54 1006.31 1007.08 1007.83 1008.56 1009.26 1009.93 1010.58 1011.21 1011.83
998.66 997.45 996.37 995.46 994.76 994.26 993.97 993.83 993.82 993.89 994.01 994.16 994.32 994.52 994.75 995.04 995.39 995.81 996.30 996.85 997.42 998.00 998.57 999.10 999.61 1000.09 1000.55 1001.03 1001.52 1002.06 1002.65 1003.29 1003.99 1004.71 1005.46 1006.21 1006.95 1007.66 1008.34 1008.99 1009.61 1010.20 1010.78 1011.36
998.27 997.02 995.85 994.80 993.93 993.26 992.80 992.54 992.45 992.51 992.68 992.93 993.24 993.60 993.99 994.42 994.88 995.38 995.90 996.44 996.99 997.54 998.08 998.60 999.12 999.62 1000.13 1000.65 1001.21 1001.81 1002.45 1003.13 1003.86 1004.61 1005.37 1006.11 1006.84 1007.53 1008.18 1008.79 1009.37 1009.93 1010.47 1011.01
997.45 996.16 994.93 993.79 992.81 992.03 991.47 991.12 990.99 991.05 991.27 991.61 992.05 992.54 993.07 993.62 994.19 994.75 995.32 995.87 996.43 996.97 997.51 998.04 998.57 999.10 999.65 1000.23 1000.84 1001.49 1002.19 1002.92 1003.69 1004.47 1005.25 1006.01 1006.75 1007.44 1008.09 1008.69 1009.25 1009.78 1010.29 1010.81
996.22 994.90 993.62 992.44 991.41 990.57 989.97 989.59 989.46 989.54 989.81 990.23 990.76 991.36 992.00 992.66 993.31 993.95 994.56 995.16 995.74 996.31 996.87 997.43 998.00 998.57 999.17 999.80 1000.46 1001.17 1001.91 1002.69 1003.50 1004.32 1005.13 1005.93 1006.70 1007.41 1008.08 1008.68 1009.24 1009.76 1010.25 1010.73
994.73 993.36 992.05 990.85 989.81 988.98 988.38 988.02 987.92 988.04 988.36 988.84 989.44 990.12 990.84 991.57 992.29 993.00 993.68 994.33 994.97 995.59 996.20 996.82 997.44 998.07 998.73 999.41 1000.13 1000.87 1001.66 1002.48 1003.33 1004.19 1005.05 1005.89 1006.69 1007.44 1008.13 1008.76 1009.32 1009.83 1010.30 1010.75
993.15 991.72 990.38 989.18 988.17 987.37 986.82 986.52 986.46 986.63 987.00 987.53 988.18 988.90 989.67 990.45 991.22 991.98 992.72 993.44 994.15 994.84 995.54 996.23 996.93 997.64 998.36 999.10 999.86 1000.66 1001.48 1002.33 1003.21 1004.11 1005.01 1005.89 1006.73 1007.52 1008.24 1008.89 1009.46 1009.96 1010.40 1010.81
991.63 990.14 988.78 987.60 986.63 985.90 985.42 985.19 985.20 985.42 985.83 986.39 987.05 987.79 988.56 989.36 990.16 990.96 991.75 992.54 993.33 994.13 994.92 995.71 996.51 997.30 998.09 998.89 999.71 1000.54 1001.39 1002.27 1003.17 1004.09 1005.02 1005.93 1006.81 1007.63 1008.37 1009.04 1009.61 1010.10 1010.51 1010.87
990.31 988.76 987.40 986.25 985.33 984.68 984.28 984.13 984.20 984.47 984.90 985.46 986.12 986.84 987.61 988.39 989.20 990.02 990.86 991.72 992.59 993.48 994.38 995.28 996.18 997.06 997.94 998.80 999.66 1000.52 1001.40 1002.29 1003.21 1004.15 1005.09 1006.02 1006.91 1007.75 1008.52 1009.19 1009.76 1010.23 1010.61 1010.92
989.25 987.68 986.32 985.20 984.35 983.77 983.45 983.37 983.49 983.80 984.24 984.79 985.43 986.11 986.84 987.60 988.40 989.23 990.10 991.02 991.97 992.95 993.95 994.96 995.95 996.93 997.88 998.81 999.71 1000.60 1001.49 1002.40 1003.32 1004.25 1005.19 1006.13 1007.03 1007.88 1008.65 1009.32 1009.89 1010.34 1010.69 1010.97
988.47 986.89 985.56 984.49 983.70 983.19 982.93 982.90 983.06 983.38 983.83 984.36 984.95 985.60 986.29 987.01 987.79 988.63 989.53 990.48 991.50 992.56 993.65 994.75 995.84 996.89 997.91 998.89 999.83 1000.75 1001.65 1002.55 1003.47 1004.39 1005.33 1006.26 1007.16 1008.01 1008.78 1009.45 1010.01 1010.46 1010.80 1011.05
987.92 986.39 985.10 984.08 983.34 982.88 982.67 982.67 982.86 983.18 983.61 984.12 984.69 985.30 985.95 986.66 987.42 988.26 989.17 990.16 991.23 992.35 993.50 994.67 995.82 996.93 998.01 999.02 999.99 1000.92 1001.83 1002.74 1003.64 1004.56 1005.49 1006.41 1007.30 1008.15 1008.93 1009.60 1010.17 1010.62 1010.97 1011.23
987.56 986.10 984.87 983.90 983.21 982.79 982.60 982.62 982.81 983.13 983.55 984.05 984.59 985.19 985.83 986.52 987.29 988.13 989.05 990.07 991.16 992.31 993.50 994.70 995.89 997.05 998.14 999.19 1000.17 1001.12 1002.03 1002.93 1003.84 1004.75 1005.67 1006.59 1007.49 1008.34 1009.12 1009.81 1010.40 1010.87 1011.25 1011.54
987.36 985.99 984.84 983.92 983.26 982.85 982.67 982.69 982.88 983.20 983.61 984.10 984.66 985.25 985.91 986.61 987.39 988.24 989.18 990.21 991.31 992.47 993.66 994.87 996.06 997.21 998.32 999.37 1000.37 1001.32 1002.24 1003.14 1004.05 1004.97 1005.89 1006.81 1007.72 1008.58 1009.38 1010.10 1010.72 1011.23 1011.65 1011.98
987.31 986.05 984.97 984.10 983.46 983.06 982.87 982.88 983.05 983.37 983.79 984.29 984.87 985.50 986.18 986.93 987.73 988.60 989.55 990.57 991.66 992.80 993.97 995.15 996.32 997.45 998.54 999.58 1000.57 1001.53 1002.46 1003.38 1004.30 1005.23 1006.17 1007.11 1008.03 1008.91 1009.74 1010.49 1011.14 1011.70 1012.16 1012.54
987.42 986.26 985.26 984.43 983.81 983.39 983.19 983.17 983.34 983.65 984.09 984.62 985.24 985.92 986.66 987.45 988.29 989.18 990.14 991.14 992.20 993.30 994.41 995.54 996.65 997.75 998.81 999.83 1000.82 1001.78 1002.72 1003.66 1004.60 1005.56 1006.52 1007.48 1008.42 1009.33 1010.18 1010.96 1011.65 1012.25 1012.76 1013.18
987.69 986.64 985.70 984.90 984.28 983.85 983.63 983.60 983.75 984.07 984.53 985.10 985.77 986.51 987.31 988.15 989.03 989.94 990.89 991.88 992.89 993.92 994.97 996.02 997.07 998.11 999.13 1000.13 1001.11 1002.07 1003.04 1004.00 1004.97 1005.95 1006.94 1007.92 1008.88 1009.81 1010.69 1011.49 1012.21 1012.84 1013.38 1013.84
988.12 987.15 986.26 985.49 984.88 984.44 984.19 984.14 984.29 984.62 985.11 985.72 986.45 987.25 988.10 988.99 989.90 990.83 991.76 992.71 993.66 994.62 995.59 996.57 997.55 998.53 999.51 1000.48 1001.46 1002.44 1003.42 1004.41 1005.41 1006.42 1007.43 1008.43 1009.41 1010.34 1011.23 1012.04 1012.77 1013.41 1013.96 1014.43
988.64 987.75 986.91 986.16 985.55 985.10 984.85 984.80 984.95 985.29 985.80 986.46 987.23 988.08 988.97 989.90 990.83 991.75 992.67 993.57 994.46 995.35 996.25 997.15 998.07 998.99 999.94 1000.90 1001.88 1002.87 1003.88 1004.90 1005.93 1006.96 1007.98 1008.99 1009.96 1010.89 1011.76 1012.56 1013.28 1013.91 1014.45 1014.92
989.19 988.35 987.55 986.83 986.24 985.80 985.55 985.50 985.66 986.02 986.56 987.25 988.06 988.94 989.87 990.81 991.75 992.66 993.55 994.40 995.24 996.07 996.90 997.74 998.61 999.50 1000.43 1001.39 1002.37 1003.39 1004.42 1005.46 1006.51 1007.55 1008.57 1009.57 1010.52 1011.42 1012.25 1013.02 1013.70 1014.31 1014.83 1015.28
989.66 988.87 988.12 987.44 986.88 986.47 986.24 986.21 986.40 986.78 987.34 988.06 988.89 989.79 990.74 991.68 992.61 993.50 994.36 995.17 995.97 996.74 997.53 998.33 999.17 1000.05 1000.97 1001.94 1002.94 1003.98 1005.03 1006.09 1007.15 1008.18 1009.19 1010.15 1011.06 1011.91 1012.69 1013.40 1014.04 1014.60 1015.09 1015.50
990.01 989.27 988.57 987.94 987.42 987.06 986.87 986.89 987.10 987.52 988.11 988.84 989.69 990.60 991.55 992.49 993.40 994.27 995.10 995.89 996.65 997.39 998.15 998.94 999.77 1000.65 1001.58 1002.57 1003.59 1004.65 1005.72 1006.78 1007.83 1008.84 1009.81 1010.73 1011.58 1012.36 1013.07 1013.72 1014.29 1014.80 1015.24 1015.62
990.23 989.54 988.89 988.33 987.88 987.57 987.45 987.52 987.78 988.23 988.85 989.60 990.46 991.37 992.31 993.24 994.14 994.99 995.80 996.57 997.31 998.05 998.80 999.59 1000.43 1001.32 1002.27 1003.28 1004.32 1005.39 1006.46 1007.52 1008.55 1009.53 1010.44 1011.29 1012.07 1012.77 1013.41 1013.98 1014.48 1014.93 1015.32 1015.65
990.35 989.71 989.13 988.64 988.27 988.05 987.99 988.12 988.44 988.93 989.58 990.36 991.22 992.14 993.07 993.99 994.87 995.71 996.51 997.27 998.01 998.75 999.52 1000.32 1001.18 1002.09 1003.06 1004.08 1005.14 1006.21 1007.27 1008.31 1009.29 1010.22 1011.07 1011.85 1012.54 1013.16 1013.71 1014.19 1014.62 1015.00 1015.34 1015.64
990.45 989.87 989.36 988.95 988.66 988.53 988.55 988.76 989.13 989.67 990.35 991.14 992.01 992.93 993.86 994.77 995.65 996.48 997.28 998.05 998.80 999.55 1000.34 1001.16 1002.03 1002.97 1003.95 1004.98 1006.03 1007.09 1008.12 1009.12 1010.05 1010.92 1011.70 1012.39 1012.99 1013.52 1013.98 1014.38 1014.73 1015.04 1015.32 1015.57
990.62 990.10 989.67 989.34 989.14 989.09 989.19 989.46 989.90 990.48 991.19 992.00 992.88 993.79 994.72 995.62 996.50 997.34 998.14 998.92 999.69 1000.47 1001.27 1002.11 1003.00 1003.94 1004.93 1005.94 1006.98 1008.00 1008.99 1009.94 1010.81 1011.60 1012.29 1012.89 1013.41 1013.85 1014.21 1014.53 1014.80 1015.04 1015.26 1015.46
990.93 990.48 990.12 989.87 989.75 989.77 989.94 990.27 990.75 991.37 992.10 992.92 993.80 994.72 995.64 996.55 997.43 998.28 999.10 999.90 1000.68 1001.48 1002.30 1003.15 1004.04 1004.98 1005.95 1006.94 1007.93 1008.91 1009.85 1010.72 1011.52 1012.22 1012.83 1013.35 1013.77 1014.11 1014.39 1014.62 1014.81 1014.98 1015.13 1015.27
Thickness
5475 5491 5498 5511 5520 5525 5530 5540 5547 5569 5584 5608 5616 5623 5630 5633 5635 5636 5639 5641 5642 5643 5641 5640 5639 5639 5640 5639 5638 5636 5634 5631 5628 5623 5618 5612 5606 5600 5594 5588 5582 5575 5569 5562
5466 5486 5494 5504 5519 5526 5536 5546 5555 5565 5581 5608 5613 5616 5620 5624 5627 5631 5635 5637 5638 5638 5637 5636 5635 5634 5632 5631 5630 5628 5626 5623 5618 5614 5609 5604 5598 5592 5586 5580 5574 5567 5562 5556
5457 5474 5484 5496 5524 5534 5543 5557 5565 5572 5596 5600 5603 5610 5617 5621 5623 5628 5632 5633 5634 5635 5635 5635 5632 5630 5627 5625 5622 5620 5617 5614 5610 5606 5601 5596 5590 5584 5578 5572 5566 5560 5554 5548
5449 5460 5469 5515 5538 5543 5549 5562 5571 5581 5591 5597 5604 5609 5613 5617 5620 5624 5627 5629 5630 5631 5630 5628 5626 5623 5621 5617 5614 5612 5609 5605 5601 5597 5592 5587 5582 5576 5570 5564 5559 5552 5546 5541
5442 5456 5478 5512 5530 5541 5545 5559 5572 5578 5586 5589 5594 5596 5604 5614 5618 5624 5626 5628 5628 5627 5625 5622 5619 5617 5613 5609 5606 5604 5601 5598 5594 5590 5585 5579 5574 5568 5562 5556 5550 5544 5538 5532
5438 5454 5480 5519 5532 5540 5542 5548 5570 5574 5581 5582 5579 5583 5608 5614 5613 5617 5619 5620 5620 5618 5616 5615 5613 5610 5607 5603 5600 5599 5596 5592 5588 5583 5578 5573 5566 5560 5553 5548 5541 5535 5528 5523
5438 5453 5482 5514 5524 5533 5527 5551 5565 5570 5576 5577 5580 5598 5610 5608 5608 5612 5614 5613 5613 5611 5611 5611 5607 5605 5601 5597 5596 5593 5588 5583 5579 5574 5570 5564 5557 5550 5544 5538 5531 5524 5518 5513
5438 5451 5480 5509 5513 5522 5536 5551 5559 5565 5572 5575 5583 5592 5595 5599 5603 5604 5606 5606 5606 5605 5603 5602 5601 5600 5596 5592 5589 5584 5579 5574 5569 5564 5559 5554 5547 5540 5534 5528 5521 5514 5508 5501
5449 5472 5494 5502 5512 5527 5535 5542 5549 5555 5563 5569 5575 5582 5588 5593 5597 5599 5601 5602 5601 5600 5596 5593 5594 5596 5592 5585 5580 5576 5570 5565 5559 5554 5549 5544 5538 5531 5524 5519 5512 5505 5499 5492
5447 5470 5485 5496 5506 5518 5527 5535 5543 5550 5556 5563 5569 5576 5581 5586 5590 5593 5595 5595 5594 5592 5590 5586 5586 5587 5585 5578 5574 5569 5561 5554 5549 5544 5538 5533 5528 5523 5517 5510 5504 5497 5491 5484
5445 5465 5477 5495 5503 5511 5519 5527 5537 5545 5551 5558 5563 5570 5577 5581 5585 5588 5590 5589 5588 5589 5587 5582 5579 5577 5574 5571 5567 5560 5552 5546 5540 5535 5529 5523 5517 5513 5508 5503 5499 5492 5485 5478
5448 5465 5470 5487 5500 5505 5512 5522 5531 5539 5547 5554 5560 5567 5572 5577 5581 5583 5583 5582 5581 5581 5578 5574 5572 5568 5565 5563 5560 5554 5544 5537 5531 5525 5519 5513 5507 5500 5497 5494 5490 5486 5480 5473
5453 5464 5473 5487 5496 5503 5511 5521 5528 5536 5544 5550 5557 5563 5567 5570 5574 5576 5576 5576 5576 5574 5570 5567 5563 5559 5556 5554 5552 5547 5540 5531 5523 5517 5511 5505 5499 5493 5485 5480 5478 5473 5469 5463
5452 5460 5471 5485 5495 5505 5512 5519 5526 5533 5541 5548 5553 5558 5562 5564 5565 5568 5569 5570 5568 5565 5561 5558 5555 5550 5547 5545 5542 5536 5529 5523 5516 5509 5503 5496 5490 5484 5478 5472 5464 5457 5455 5451
5453 5461 5474 5486 5495 5502 5508 5514 5521 5528 5535 5541 5547 5552 5555 5557 5558 5558 5558 5558 5556 5553 5550 5548 5545 5539 5537 5535 5531 5525 5519 5512 5505 5499 5492 5486 5480 5474 5467 5461 5454 5447 5441 5437
5456 5464 5473 5483 5492 5499 5505 5513 5520 5527 5532 5537 5541 5544 5547 5549 5548 5546 5546 5548 5548 5544 5541 5539 5535 5530 5528 5525 5520 5514 5507 5503 5496 5489 5482 5475 5469 5463 5457 5450 5444 5437 5432 5426
5453 5464 5473 5482 5491 5498 5506 5514 5522 5527 5530 5533 5536 5537 5537 5537 5535 5534 5534 5534 5535 5533 5531 5529 5524 5519 5517 5514 5510 5503 5497 5491 5486 5478 5472 5465 5459 5453 5446 5440 5434 5427 5421 5417
5460 5470 5479 5486 5494 5501 5507 5512 5519 5523 5526 5528 5529 5529 5531 5531 5529 5526 5524 5522 5520 5516 5514 5514 5512 5509 5506 5502 5499 5493 5487 5480 5474 5467 5461 5455 5449 5443 5436 5430 5423 5417 5410 5406
5464 5473 5482 5489 5496 5502 5507 5511 5515 5518 5519 5521 5523 5523 5522 5522 5520 5518 5516 5515 5513 5507 5501 5501 5502 5498 5494 5491 5488 5482 5476 5469 5462 5456 5451 5447 5438 5432 5425 5419 5413 5406 5400 5395
5466 5474 5483 5489 5494 5499 5505 5508 5510 5511 5513 5514 5514 5512 5509 5508 5508 5508 5506 5503 5502 5500 5496 5493 5490 5486 5482 5479 5476 5471 5465 5459 5453 5446 5440 5433 5427 5420 5414 5409 5403 5396 5390 5384
5465 5474 5480 5485 5489 5494 5499 5503 5505 5505 5505 5506 5507 5506 5502 5499 5498 5498 5498 5491 5485 5487 5486 5484 5480 5476 5472 5469 5466 5459 5454 5448 5442 5435 5429 5422 5416 5410 5404 5398 5393 5387 5381 5375
5460 5469 5475 5480 5484 5487 5490 5494 5497 5497 5496 5495 5494 5493 5491 5489 5487 5486 5484 5483 5478 5478 5476 5472 5469 5467 5463 5459 5453 5447 5442 5436 5430 5424 5418 5412 5406 5400 5394 5388 5382 5377 5371 5364
5453 5461 5468 5473 5476 5478 5479 5481 5484 5486 5485 5485 5485 5485 5485 5483 5482 5481 5472 5467 5468 5468 5465 5461 5460 5457 5452 5446 5440 5435 5430 5424 5418 5412 5407 5401 5395 5389 5384 5378 5372 5366 5360 5353
5445 5452 5457 5460 5464 5466 5466 5466 5468 5470 5471 5472 5472 5473 5473 5471 5466 5464 5464 5460 5459 5456 5453 5450 5448 5444 5439 5432 5427 5422 5416 5411 5405 5400 5395 5389 5384 5378 5372 5367 5361 5355 5349 5343
5434 5440 5446 5449 5452 5453 5453 5454 5455 5455 5457 5456 5455 5456 5457 5459 5457 5452 5450 5448 5446 5443 5439 5436 5434 5430 5424 5419 5414 5408 5403 5398 5393 5388 5383 5378 5372 5367 5361 5356 5350 5344 5338 5332
5423 5429 5434 5438 5441 5442 5443 5446 5446 5445 5446 5444 5441 5441 5442 5442 5441 5438 5436 5433 5431 5429 5424 5420 5417 5413 5409 5404 5400 5395 5390 5386 5381 5376 5371 5366 5361 5355 5350 5345 5339 5333 5327 5322
5411 5418 5422 5424 5426 5429 5432 5435 5436 5435 5435 5434 5431 5427 5427 5426 5425 5423 5421 5418 5415 5411 5408 5405 5401 5398 5394 5390 5386 5381 5377 5372 5368 5364 5359 5354 5349 5344 5339 5333 5328 5322 5317 5312